Weather History for Sella Ness, United Kingdom

Change the Weather History Date:

Friday, December 28, 2012

  Actual Average Record
Temperature  
Mean Temperature 44 °F -  
Max Temperature 50 °F 41 °F 50 °F (2012)
Min Temperature 37 °F 36 °F 17 °F (2000)
Degree Days  
Heating Degree Days 22    
Moisture  
Dew Point 39 °F    
Average Humidity 84    
Maximum Humidity 93    
Minimum Humidity 70    
Precipitation  
Precipitation 0.00 in - - ()
Sea Level Pressure  
Sea Level Pressure 29.36 in    
Wind  
Wind Speed 23 mph ()    
Max Wind Speed 37 mph    
Max Gust Speed 51 mph    
Visibility 4.9 miles    
Events Rain    
Averages and records for this station are not official NWS values.
T = Trace of Precipitation, MM = Missing Value Source: Averaged Metar Reports

Daily Weather History Graph

Daily Weather History Graph

Search for Another Location

Airport:

Trip Planner

Search our weather history database for the weather conditions in past years. The results will help you decide how hot, cold, wet, or windy it might be!

Date:

Astronomy

Dec. 28, 2012 Rise Set
Actual Time 9:12 AM GMT 3:01 PM GMT
Civil Twilight 8:14 AM GMT 4:00 PM GMT
Nautical Twilight 7:16 AM GMT 4:57 PM GMT
Astronomical Twilight 6:24 AM GMT 5:49 PM GMT
Moon 3:42 PM GMT (12/28) 8:40 AM GMT (12/28)
Length of Visible Light 7h 46m
Length of Day
5h 48m
Full, 100% of the Moon is Illuminated
Dec 28
Full
Jan 5
Last Quarter
Jan 11
New
Jan 18
First Quarter
Jan 27
Full

Hourly Weather History & Observations

Time (GMT) Temp. Windchill Dew Point Humidity Pressure Visibility Wind Dir Wind Speed Gust Speed Precip Events Conditions
12:20 AM 37.4 °F 26.4 °F 28.4 °F 70% 29.77 in 6.2 mi South 23.0 mph - N/A   Mostly Cloudy
12:50 AM 37.4 °F 26.9 °F 30.2 °F 75% 29.77 in 6.2 mi South 20.7 mph - N/A   Mostly Cloudy
1:20 AM 37.4 °F 26.9 °F 32.0 °F 81% 29.74 in 6.2 mi South 20.7 mph - N/A   Mostly Cloudy
1:50 AM 39.2 °F 29.3 °F 32.0 °F 75% 29.74 in 6.2 mi South 20.7 mph - N/A Rain Rain
2:20 AM 39.2 °F 29.6 °F 32.0 °F 75% 29.71 in 6.2 mi South 19.6 mph - N/A   Overcast
2:50 AM 39.2 °F 29.8 °F 33.8 °F 81% 29.71 in 6.2 mi South 18.4 mph - N/A   Overcast
3:20 AM 39.2 °F 29.8 °F 33.8 °F 81% 29.71 in 6.2 mi South 18.4 mph - N/A   Mostly Cloudy
3:50 AM 41.0 °F 31.6 °F 33.8 °F 76% 29.68 in 6.2 mi South 20.7 mph - N/A   Drizzle
4:20 AM 41.0 °F 31.6 °F 35.6 °F 81% 29.68 in 6.2 mi South 20.7 mph - N/A   Overcast
4:50 AM 41.0 °F 31.1 °F 33.8 °F 76% 29.65 in 6.2 mi South 23.0 mph - N/A   Mostly Cloudy
5:20 AM 41.0 °F 31.6 °F 35.6 °F 81% 29.65 in 6.2 mi South 20.7 mph - N/A   Mostly Cloudy
5:50 AM 41.0 °F 31.1 °F 35.6 °F 81% 29.62 in 6.2 mi South 23.0 mph - N/A   Mostly Cloudy
6:20 AM 41.0 °F 30.9 °F 35.6 °F 81% 29.59 in 6.2 mi South 24.2 mph - N/A   Scattered Clouds
6:50 AM 41.0 °F 30.7 °F 35.6 °F 81% 29.59 in 6.2 mi South 25.3 mph - N/A   Scattered Clouds
7:20 AM 41.0 °F 30.9 °F 35.6 °F 81% 29.56 in 6.2 mi South 24.2 mph - N/A   Scattered Clouds
7:50 AM 41.0 °F 30.9 °F 35.6 °F 81% 29.56 in 6.2 mi South 24.2 mph 35.7 mph N/A   Scattered Clouds
8:20 AM 42.8 °F 32.9 °F 35.6 °F 76% 29.53 in 6.2 mi South 26.5 mph - N/A   Scattered Clouds
8:50 AM 42.8 °F 33.1 °F 35.6 °F 76% 29.53 in 6.2 mi South 25.3 mph 38.0 mph N/A   Scattered Clouds
9:20 AM 42.8 °F 32.7 °F 37.4 °F 81% 29.50 in 6.2 mi SSE 27.6 mph 40.3 mph N/A Rain Light Rain
9:50 AM 42.8 °F 33.5 °F 37.4 °F 81% 29.50 in 5.6 mi SSE 23.0 mph - N/A Rain Rain
10:20 AM 41.0 °F 30.9 °F 37.4 °F 87% 29.47 in 4.3 mi SSE 24.2 mph 36.8 mph N/A Rain Rain
10:50 AM 42.8 °F 32.1 °F 37.4 °F 81% 29.44 in 5.0 mi SSE 31.1 mph - N/A Rain Rain
11:20 AM 41.0 °F 29.8 °F 37.4 °F 87% 29.39 in 5.6 mi SSE 29.9 mph 42.6 mph N/A Rain Rain
11:50 AM 41.0 °F 29.7 °F 37.4 °F 87% 29.39 in 5.6 mi SSE 31.1 mph 47.2 mph N/A Rain Light Rain
12:20 PM 41.0 °F 29.1 °F 37.4 °F 87% 29.33 in 4.3 mi SSE 34.5 mph 50.6 mph N/A Rain Light Rain
12:50 PM 41.0 °F 28.8 °F 37.4 °F 87% 29.33 in 3.7 mi South 36.8 mph 49.5 mph N/A Rain Rain
1:20 PM 41.0 °F 29.7 °F 37.4 °F 87% 29.27 in 3.7 mi SSE 31.1 mph 47.2 mph N/A Rain Rain
1:50 PM 42.8 °F 32.3 °F 39.2 °F 87% 29.24 in 4.3 mi SSE 29.9 mph 41.4 mph N/A Rain Rain
2:20 PM 42.8 °F 32.7 °F 41.0 °F 93% 29.21 in 1.2 mi SSE 27.6 mph - N/A Rain Heavy Rain
2:50 PM 44.6 °F 34.9 °F 42.8 °F 93% 29.18 in 1.0 mi SSE 28.8 mph - N/A Rain Heavy Rain
3:20 PM 44.6 °F 35.3 °F 42.8 °F 93% 29.18 in 1.1 mi South 26.5 mph - N/A Rain Heavy Rain
3:50 PM 44.6 °F 34.9 °F 42.8 °F 93% 29.15 in 1.7 mi South 28.8 mph 42.6 mph N/A Rain Rain
4:20 PM 46.4 °F 37.2 °F 42.8 °F 87% 29.12 in 2.5 mi South 29.9 mph 41.4 mph N/A Rain Rain
4:50 PM 46.4 °F 37.4 °F 42.8 °F 87% 29.12 in 1.1 mi South 28.8 mph - N/A Rain Heavy Rain
5:20 PM 46.4 °F 37.2 °F 44.6 °F 93% 29.12 in 3.1 mi South 29.9 mph - N/A   Drizzle
5:50 PM 46.4 °F 37.2 °F 44.6 °F 93% 29.12 in - South 29.9 mph - N/A Rain Rain
6:20 PM 46.4 °F 37.7 °F 44.6 °F 93% 29.09 in 6.2 mi South 26.5 mph - N/A   Mostly Cloudy
6:50 PM 48.2 °F - 44.6 °F 87% 29.09 in 6.2 mi South 24.2 mph - N/A   Mostly Cloudy
7:20 PM 48.2 °F - 44.6 °F 87% 29.09 in 6.2 mi South 24.2 mph - N/A   Mostly Cloudy
7:50 PM 48.2 °F - 44.6 °F 87% 29.06 in 6.2 mi South 26.5 mph 38.0 mph N/A   Drizzle
8:20 PM 48.2 °F - 44.6 °F 87% 29.06 in 4.3 mi South 29.9 mph - N/A Rain Rain
8:50 PM 48.2 °F - 44.6 °F 87% 29.03 in - South 29.9 mph 41.4 mph N/A Rain Rain
9:20 PM 48.2 °F - 46.4 °F 93% 29.03 in 3.1 mi South 31.1 mph - N/A Rain Rain
9:50 PM 48.2 °F - 46.4 °F 93% 29.03 in 1.7 mi South 33.4 mph 44.9 mph N/A Rain Rain
10:20 PM 50.0 °F - 46.4 °F 87% 29.00 in - South 32.2 mph 46.0 mph N/A Rain Rain
10:50 PM 50.0 °F - 46.4 °F 87% 29.00 in - South 35.7 mph 47.2 mph N/A Rain Rain
11:20 PM 50.0 °F - 46.4 °F 87% 28.97 in 3.1 mi South 33.4 mph - N/A Rain Light Rain
11:50 PM 50.0 °F - 46.4 °F 87% 28.97 in 5.6 mi South 28.8 mph 40.3 mph N/A   Mostly Cloudy